Location: Chevoux
(46.3801°N, 4.9476°E)
Time: 23:00:53
(UTC+00:00)

USA 229 DEB - Pass Details

Date: 28 January 2021
Orbit: 965 x 1247 km, 63.4° (Epoch: 03 March)

Event Time Altitude Azimuth Distance (km) Brightness Sun altitude
Rises 17:23:18 0° 320° (NW) 3,940 7.0 -7.9°
Reaches altitude 10° 17:25:56 10° 323° (NW) 3,018 6.3 -8.4°
Maximum altitude 17:33:13 75° 49° (NE) 1,224 3.9 -9.6°
Drops below altitude 10° 17:40:54 10° 135° (SE) 3,179 5.9 -10.9°
Sets 17:43:44 0° 137° (SE) 4,161 6.5 -11.3°
